[[{"header":{"parameterUnit":"m.s-1","parameterCategory":1,"la1":30.2991,"la2":30.254,"lo1":-89.0895,"lo2":-89.0444,"dy":0.0017,"dx":0.0017,"nx":28,"ny":28,"refTime":"2023-09-20T21:00:00:Z","depth":0,"parameterNumber":2,"parameterNumberName":"U-component_of_WINDS"},"data":[0,0,0,0,0,0,0,0,0,0,0,0,0,0,0,0,0,0,0,0,0,0,0,0,0,0,0,0,0,0,0,0,0,0,0,0,0,0,0,0,0,0,0,0,0,0,0,0,0,0,0,0,0,0,0,0,0,0,-6.3166,-6.3166,0,-6.3207,-6.3207,-6.3208,-6.3089,-6.3085,-6.3082,-6.3078,-6.3118,-6.3123,-6.3127,0,0,0,0,0,0,0,0,0,0,0,0,0,-6.2983,-6.2987,-6.3166,-6.3166,-6.3167,-6.3207,-6.3207,-6.3208,-6.309,-6.3085,-6.3081,-6.3077,-6.3117,-6.3122,-6.3127,0,0,0,0,0,0,0,0,0,0,0,0,0,-6.3047,-6.2988,-6.3166,-6.3113,-6.3109,-6.3206,-6.3207,-6.3208,-6.3091,-6.3085,-6.308,-6.3075,-6.3115,-6.3121,-6.3128,-6.3279,0,0,-6.3148,-6.3151,0,0,0,0,0,0,0,0,-6.3043,-6.3054,-6.312,-6.3117,-6.3112,-6.3137,-6.3157,-6.3231,-6.3092,-6.3097,-6.3078,-6.3072,-6.3129,-6.3134,-6.3154,-6.328,-6.3282,-6.3149,-6.3153,-6.3156,-6.3158,0,0,0,0,0,0,0,-6.3039,-6.3051,-6.3182,-6.3121,-6.3116,-6.3086,-6.3089,-6.3171,-6.3143,-6.3096,-6.3088,-6.3095,-6.3125,-6.3147,-6.3154,-6.3283,-6.3149,-6.3155,-6.3159,-6.3162,-6.3531,-6.3536,0,0,0,0,0,0,-6.3042,-6.3048,-6.3181,-6.3183,-6.3064,-6.3094,-6.3097,-6.3135,-6.3142,-6.3138,-6.3099,-6.3089,-6.3139,-6.3146,-6.3155,-6.3327,-6.3156,-6.3162,-6.3166,-6.3525,-6.3532,-6.3538,0,0,0,0,0,0,-6.3038,-6.3055,-6.3179,-6.3113,-6.3127,-6.3103,-6.3146,-6.3138,-6.316,-6.3144,-6.3138,-6.3127,-6.3135,-6.3145,-6.3248,-6.3327,-6.3165,-6.3171,-6.3518,-6.3527,-6.3535,-6.3677,0,0,0,0,0,0,-6.3034,-6.3054,-6.3112,-6.3116,-6.3131,-6.3273,-6.3151,-6.3143,-6.3172,-6.3159,-6.3168,-6.3165,-6.3131,-6.3238,-6.3254,-6.3333,-6.3176,-6.3511,-6.3522,-6.3532,-6.3665,-6.3689,-6.371,0,0,0,0,0,-6.3027,-6.3151,-6.3115,-6.3132,-6.3203,-6.3278,-6.3286,-6.3246,-6.3179,-6.3236,-6.3225,-6.3164,-6.3317,-6.325,-6.3267,-6.3349,-6.3505,-6.3519,-6.3532,-6.3654,-6.3684,-6.3709,0,0,0,0,0,0,-6.3157,-6.315,-6.3111,-6.3239,-6.326,-6.3257,-6.3328,-6.3279,-6.3319,-6.3305,-6.3253,-6.3256,-6.3367,-6.3369,-6.3294,-6.3493,-6.3399,-6.3417,-6.3487,-6.3515,-6.3538,-6.3533,-6.3182,0,0,0,0,0,-6.32,-6.3263,-6.3253,-6.3367,-6.338,-6.3353,-6.3384,-6.3351,-6.337,-6.3378,-6.3375,-6.3395,-6.3446,-6.3482,-6.3529,-6.3666,-6.3664,-6.3731,-6.3753,-6.3772,-6.3786,-6.3854,-6.3883,-6.3581,-6.3581,-6.3581,0,0,-6.329,-6.3295,-6.3337,-6.3393,-6.3405,-6.3469,-6.3361,-6.3434,-6.3479,-6.3388,-6.3483,-6.3483,-6.3502,-6.3621,-6.3673,-6.3626,-6.3869,-6.3789,-6.3804,-6.3807,-6.3871,-6.3899,-6.3925,-6.359,-6.3588,-6.3587,0,0,-6.3486,-6.3498,-6.3591,-6.3606,-6.3625,-6.3606,-6.3629,-6.3634,-6.363,-6.3725,-6.3657,-6.3711,-6.3803,-6.3818,-6.3838,-6.4039,-6.3982,-6.4056,-6.4173,-6.424,-6.4264,-6.4284,-6.4351,-6.4377,-6.4071,-6.4071,-6.4072,0,-6.3595,-6.3689,-6.3646,-6.3723,-6.3748,-6.367,-6.3763,-6.3779,-6.3813,-6.3831,-6.3779,-6.389,-6.3898,-6.4017,-6.4066,-6.4087,-6.4108,-6.4052,-6.4264,-6.4284,-6.4303,-6.4366,-6.4392,-6.408,-6.4079,-6.4078,-6.4077,0,-6.382,-6.3887,-6.396,-6.3994,-6.4028,-6.4114,-6.4082,-6.4121,-6.4086,-6.4072,-6.4169,-6.4175,-6.4221,-6.4248,-6.4215,-6.4362,-6.4331,-6.4273,-6.4176,-6.4341,-6.4399,-6.4423,-6.4092,-6.4089,-6.4086,-6.4084,0,0,-6.4096,-6.4105,-6.4132,-6.4145,-6.4161,-6.421,-6.4292,-6.4336,-6.4369,-6.4396,-6.446,-6.454,-6.4484,-6.4507,-6.4474,-6.4534,-6.4688,-6.4467,-6.4467,-6.4504,-6.4846,-6.4887,-6.4916,-6.4653,-6.4657,-6.4661,-6.4843,0,-6.4285,-6.4422,-6.4386,-6.4522,-6.4581,-6.4507,-6.4577,-6.4594,-6.4583,-6.4631,-6.4619,-6.4674,-6.46,-6.4612,-6.4669,-6.4657,-6.4755,-6.4644,-6.4708,-6.4711,-6.4701,-6.4947,-6.4991,-6.5162,-6.4866,-6.487,-6.4873,0,-6.4523,-6.4558,-6.47,-6.4704,-6.4727,-6.479,-6.4826,-6.4874,-6.4891,-6.4879,-6.4904,-6.4859,-6.4936,-6.4844,-6.4948,-6.4873,-6.4898,-6.4897,-6.4902,-6.4902,-6.4798,-6.4949,-6.5216,-6.524,-6.4909,-6.4906,-6.4904,0,-6.4704,-6.4787,-6.4881,-6.4896,-6.4904,-6.4949,-6.4954,-6.4966,-6.4994,-6.5026,-6.5043,-6.5085,-6.5107,-6.5139,-6.5106,-6.5043,-6.5214,-6.512,-6.5203,-6.5204,-6.5239,-6.5236,-6.5508,-6.5264,-6.5263,-6.5263,-6.5262,0,-6.4915,-6.5004,-6.4962,-6.502,-6.5117,-6.5074,-6.517,-6.5167,-6.5178,-6.5232,-6.5173,-6.5225,-6.5181,-6.5229,-6.5204,-6.5292,-6.5304,-6.5294,-6.5285,-6.5296,-6.5297,-6.5308,-6.5293,-6.527,-6.5268,-6.5267,-6.5266,0,-6.5132,-6.5108,-6.5205,-6.5205,-6.5206,-6.5277,-6.5276,-6.5328,-6.5314,-6.5384,-6.5398,-6.5375,-6.5428,-6.54,-6.5456,-6.5439,-6.555,-6.5529,-6.5544,-6.5537,-6.562,-6.5611,-6.5904,-6.5939,-6.5678,-6.568,-6.5682,0,-6.5266,-6.5332,-6.5338,-6.537,-6.5379,-6.5433,-6.5461,-6.5422,-6.5454,-6.5477,-6.5526,-6.5574,-6.561,-6.5699,-6.5686,-6.5728,-6.5703,-6.5803,-6.5709,-6.5717,-6.5698,-6.5693,-6.5697,-6.5821,-6.5824,-6.5826,-6.5828,0,-6.5505,-6.5489,-6.5532,-6.5572,-6.5607,-6.5636,-6.5659,-6.5689,-6.565,-6.5689,-6.5742,-6.577,-6.5827,-6.5874,-6.5909,-6.5913,-6.5863,-6.5859,-6.588,-6.5889,-6.5893,-6.5887,-6.5591,-6.5851,-6.5849,-6.5847,-6.5846,-6.5845,-6.568,-6.5734,-6.5746,-6.5796,-6.5809,-6.5833,-6.5881,-6.5873,-6.5917,-6.5958,-6.5933,-6.5995,-6.6008,-6.6051,-6.6062,-6.6108,-6.6068,-6.6099,-6.6106,-6.6113,-6.6122,-6.5891,-6.6116,-6.6115,-6.6114,-6.6114,-6.6113,0,-6.5912,-6.5916,-6.5962,-6.5996,-6.6035,-6.5987,-6.601,-6.6045,-6.61,-6.6117,-6.6153,-6.6214,-6.6259,-6.6251,-6.6292,-6.6331,-6.6309,-6.6342,-6.6336,-6.6337,-6.6158,-6.6134,-6.6359,-6.6359,-6.6359,-6.6359,-6.6359,-6.6359,-6.6036,-6.6123,-6.6109,-6.6202,-6.6205,-6.6265,-6.6282,-6.6303,-6.6315,-6.6385,-6.6422,-6.6417,-6.6423,-6.6464,-6.6503,-6.6499,-6.6514,-6.6556,-6.6543,-6.6375,-6.635,-6.6327,-6.6303,-6.6561,-6.6561,-6.6717,-6.6719,-6.672]},{"header":{"parameterUnit":"m.s-1","parameterCategory":1,"la1":30.2991,"la2":30.254,"lo1":-89.0895,"lo2":-89.0444,"dy":0.0017,"dx":0.0017,"nx":28,"ny":28,"refTime":"2023-09-20T21:00:00:Z","depth":0,"parameterNumber":3,"parameterNumberName":"V-component_of_WINDS"},"data":[0,0,0,0,0,0,0,0,0,0,0,0,0,0,0,0,0,0,0,0,0,0,0,0,0,0,0,0,0,0,0,0,0,0,0,0,0,0,0,0,0,0,0,0,0,0,0,0,0,0,0,0,0,0,0,0,0,0,-0.4152,-0.4152,0,-0.4121,-0.412,-0.412,-0.4139,-0.414,-0.4141,-0.4142,-0.4107,-0.4106,-0.4104,0,0,0,0,0,0,0,0,0,0,0,0,0,-0.4225,-0.4224,-0.4152,-0.4152,-0.4151,-0.4121,-0.412,-0.412,-0.4139,-0.414,-0.4141,-0.4142,-0.4108,-0.4106,-0.4104,0,0,0,0,0,0,0,0,0,0,0,0,0,-0.4193,-0.4223,-0.4152,-0.4157,-0.4158,-0.4121,-0.412,-0.412,-0.4139,-0.414,-0.4141,-0.4143,-0.4109,-0.4106,-0.4104,-0.4059,0,0,-0.4095,-0.4094,0,0,0,0,0,0,0,0,-0.4195,-0.4191,-0.4157,-0.4157,-0.4157,-0.4135,-0.4133,-0.4099,-0.4138,-0.4146,-0.4142,-0.4143,-0.4115,-0.4112,-0.4103,-0.4058,-0.4056,-0.4095,-0.4094,-0.4092,-0.4092,0,0,0,0,0,0,0,-0.4197,-0.4192,-0.414,-0.4156,-0.4156,-0.416,-0.4157,-0.4127,-0.4123,-0.4145,-0.4147,-0.4143,-0.4116,-0.4106,-0.4103,-0.4056,-0.4095,-0.4093,-0.4091,-0.409,-0.3967,-0.3966,0,0,0,0,0,0,-0.42,-0.4194,-0.4141,-0.4139,-0.418,-0.4157,-0.4154,-0.4141,-0.4124,-0.4122,-0.4141,-0.4144,-0.411,-0.4106,-0.4101,-0.4045,-0.4092,-0.409,-0.4088,-0.3969,-0.3967,-0.3965,0,0,0,0,0,0,-0.4201,-0.4195,-0.4142,-0.4167,-0.416,-0.4155,-0.414,-0.4139,-0.413,-0.4121,-0.412,-0.4132,-0.4111,-0.4105,-0.4069,-0.4044,-0.4089,-0.4086,-0.3971,-0.3968,-0.3966,-0.3934,0,0,0,0,0,0,-0.4203,-0.4195,-0.418,-0.4166,-0.4159,-0.4111,-0.4138,-0.4138,-0.4125,-0.4128,-0.4112,-0.4111,-0.4111,-0.4073,-0.4066,-0.4041,-0.4084,-0.3973,-0.397,-0.3967,-0.3937,-0.393,-0.3925,0,0,0,0,0,-0.4206,-0.4172,-0.4179,-0.4172,-0.4139,-0.411,-0.4105,-0.4107,-0.4123,-0.4106,-0.41,-0.4111,-0.4048,-0.4069,-0.4062,-0.4036,-0.3975,-0.3971,-0.3967,-0.394,-0.3932,-0.3925,0,0,0,0,0,0,-0.4183,-0.4171,-0.4178,-0.4139,-0.4125,-0.4113,-0.4092,-0.41,-0.408,-0.4083,-0.4086,-0.4082,-0.4043,-0.4036,-0.4059,-0.3989,-0.4014,-0.4008,-0.3995,-0.3988,-0.3982,-0.3983,-0.4082,0,0,0,0,0,-0.4174,-0.4152,-0.4142,-0.4109,-0.4102,-0.4098,-0.4085,-0.4088,-0.4073,-0.4067,-0.4058,-0.4043,-0.4019,-0.4003,-0.3982,-0.3937,-0.3931,-0.3915,-0.3909,-0.3904,-0.3898,-0.3869,-0.3861,-0.3953,-0.3953,-0.3953,0,0,-0.4154,-0.4145,-0.4131,-0.4104,-0.4094,-0.4068,-0.4093,-0.4067,-0.4047,-0.4063,-0.4027,-0.402,-0.4002,-0.396,-0.3941,-0.3953,-0.3872,-0.3899,-0.3895,-0.3892,-0.3865,-0.3856,-0.3848,-0.395,-0.3951,-0.3951,0,0,-0.4105,-0.4097,-0.4067,-0.4055,-0.4038,-0.4036,-0.4028,-0.4014,-0.4009,-0.3974,-0.3983,-0.396,-0.3921,-0.3906,-0.3894,-0.3835,-0.3843,-0.3828,-0.3796,-0.3768,-0.376,-0.3754,-0.3729,-0.372,-0.3824,-0.3823,-0.3823,0,-0.4082,-0.4046,-0.405,-0.4022,-0.4008,-0.4021,-0.3988,-0.3977,-0.3953,-0.3943,-0.3957,-0.3904,-0.3894,-0.3846,-0.3831,-0.3822,-0.3811,-0.3829,-0.3761,-0.3755,-0.3749,-0.3725,-0.3716,-0.3821,-0.3822,-0.3822,-0.3822,0,-0.4017,-0.3992,-0.3969,-0.3945,-0.3929,-0.3899,-0.3896,-0.3879,-0.3882,-0.3877,-0.3838,-0.3826,-0.3799,-0.3789,-0.3793,-0.374,-0.3747,-0.3761,-0.3785,-0.3738,-0.3715,-0.3706,-0.3819,-0.3819,-0.382,-0.382,0,0,-0.3953,-0.393,-0.3921,-0.3909,-0.389,-0.3869,-0.3838,-0.3812,-0.3796,-0.3779,-0.375,-0.3715,-0.3726,-0.3712,-0.3714,-0.369,-0.3638,-0.3706,-0.3705,-0.369,-0.3575,-0.3562,-0.3552,-0.3645,-0.3643,-0.3642,-0.3575,0,-0.39,-0.3846,-0.3847,-0.3796,-0.377,-0.378,-0.3752,-0.3736,-0.373,-0.3706,-0.3699,-0.3672,-0.3692,-0.3682,-0.3659,-0.365,-0.3615,-0.3655,-0.3615,-0.3613,-0.3615,-0.3541,-0.3528,-0.3465,-0.3567,-0.3565,-0.3564,0,-0.383,-0.3809,-0.3756,-0.3737,-0.3726,-0.3701,-0.3675,-0.3653,-0.3634,-0.3631,-0.3613,-0.3618,-0.3583,-0.361,-0.356,-0.3587,-0.357,-0.3563,-0.3561,-0.3554,-0.3584,-0.3529,-0.3446,-0.3435,-0.3551,-0.3552,-0.3553,0,-0.3784,-0.3743,-0.3704,-0.3694,-0.3672,-0.3653,-0.3643,-0.3626,-0.3609,-0.3586,-0.3574,-0.3548,-0.3532,-0.3511,-0.3507,-0.3527,-0.3455,-0.3482,-0.3448,-0.3448,-0.3431,-0.3431,-0.334,-0.3426,-0.3426,-0.3426,-0.3426,0,-0.3722,-0.3688,-0.3682,-0.3658,-0.3619,-0.3619,-0.358,-0.3571,-0.3555,-0.3527,-0.3535,-0.3509,-0.3507,-0.3479,-0.3476,-0.3432,-0.3426,-0.342,-0.3419,-0.3417,-0.3418,-0.3405,-0.3407,-0.3424,-0.3424,-0.3425,-0.3425,0,-0.3663,-0.3659,-0.3616,-0.3598,-0.3593,-0.3564,-0.3548,-0.3523,-0.3517,-0.3482,-0.3473,-0.3463,-0.343,-0.3425,-0.3387,-0.3384,-0.3331,-0.3336,-0.3337,-0.3336,-0.3301,-0.3303,-0.3196,-0.318,-0.3279,-0.3278,-0.3278,0,-0.3622,-0.3596,-0.3574,-0.3556,-0.3545,-0.3517,-0.3499,-0.3497,-0.3478,-0.3452,-0.3429,-0.3398,-0.3371,-0.3318,-0.3306,-0.3275,-0.3277,-0.3242,-0.3273,-0.327,-0.3272,-0.3272,-0.3267,-0.3235,-0.3234,-0.3233,-0.3233,0,-0.3549,-0.3547,-0.3522,-0.3494,-0.3472,-0.345,-0.343,-0.3414,-0.341,-0.3387,-0.3353,-0.3333,-0.3292,-0.3259,-0.3228,-0.3215,-0.3221,-0.3223,-0.3213,-0.3209,-0.3209,-0.3204,-0.3317,-0.3225,-0.3226,-0.3226,-0.3227,-0.3227,-0.3495,-0.347,-0.345,-0.342,-0.3404,-0.3384,-0.3358,-0.3348,-0.3321,-0.3287,-0.3288,-0.325,-0.3227,-0.3186,-0.3171,-0.314,-0.3151,-0.3137,-0.3133,-0.3128,-0.3123,-0.3217,-0.3135,-0.3135,-0.3135,-0.3135,-0.3135,0,-0.3419,-0.3406,-0.3379,-0.3348,-0.3323,-0.3333,-0.3309,-0.3287,-0.3254,-0.3233,-0.3206,-0.3165,-0.3131,-0.3116,-0.3082,-0.3059,-0.3061,-0.305,-0.305,-0.3046,-0.3117,-0.3127,-0.3049,-0.3049,-0.3049,-0.3049,-0.3049,-0.3049,-0.3376,-0.3333,-0.3328,-0.3276,-0.3263,-0.3226,-0.3211,-0.319,-0.3173,-0.3127,-0.3099,-0.3089,-0.3069,-0.3033,-0.3002,-0.2998,-0.2983,-0.297,-0.2967,-0.3033,-0.3042,-0.305,-0.3059,-0.2968,-0.2968,-0.2897,-0.2897,-0.2896]}]]